| time (UTC) | temp F | wind direction | speed MPH | gust MPH | rain 1hr in | rain 24hr in | rain mn in | humidity % | barometer mb |
| 20260904111548 | 49 | 24 | 0.0 | 0.0 | 0.00 | 0.01 | 0.00 | 93 | 1012.5 |
| 20260904110047 | 48 | 24 | 0.0 | 0.0 | 0.00 | 0.01 | 0.00 | 93 | 1012.6 |
| 20260904104546 | 48 | 24 | 0.0 | 1.0 | 0.00 | 0.01 | 0.00 | 93 | 1012.6 |
| 20260904103045 | 48 | 26 | 0.0 | 2.0 | 0.00 | 0.01 | 0.00 | 92 | 1012.5 |
| 20260904101544 | 47 | 219 | 0.0 | 0.0 | 0.00 | 0.01 | 0.00 | 92 | 1012.6 |
| 20260904100052 | 47 | 222 | 0.0 | 2.0 | 0.00 | 0.01 | 0.00 | 91 | 1012.5 |
| 20260904094553 | 48 | 279 | 0.0 | 0.0 | 0.00 | 0.01 | 0.00 | 90 | 1012.3 |
| 20260904093042 | 48 | 304 | 0.0 | 0.0 | 0.00 | 0.01 | 0.00 | 89 | 1012.5 |
| 20260904091541 | 49 | 321 | 0.0 | 0.0 | 0.00 | 0.01 | 0.00 | 89 | 1012.4 |
| 20260904090052 | 49 | 273 | 0.0 | 0.0 | 0.00 | 0.01 | 0.00 | 89 | 1012.5 |
| 20260904084541 | 49 | 275 | 0.0 | 0.0 | 0.00 | 0.01 | 0.00 | 87 | 1012.7 |
| 20260904083107 | 50 | 40 | 0.0 | 0.0 | 0.00 | 0.01 | 0.00 | 88 | 1012.7 |
| 20260904081535 | 49 | 50 | 1.0 | 2.0 | 0.00 | 0.01 | 0.00 | 90 | 1012.6 |
| 20260904080037 | 49 | 28 | 1.0 | 5.0 | 0.00 | 0.01 | 0.00 | 89 | 1012.5 |
| 20260904074532 | 48 | 44 | 0.0 | 2.0 | 0.00 | 0.01 | 0.00 | 91 | 1012.5 |
| 20260904073029 | 48 | 130 | 0.0 | 2.0 | 0.00 | 0.01 | 0.00 | 89 | 1012.4 |
| 20260904071527 | 48 | 246 | 0.0 | 0.0 | 0.00 | 0.01 | 0.00 | 87 | 1012.5 |
| 20260904070046 | 48 | 238 | 0.0 | 2.0 | 0.00 | 0.01 | 0.00 | 86 | 1012.2 |
| 20260904064524 | 48 | 299 | 0.0 | 0.0 | 0.00 | 0.01 | 0.01 | 84 | 1012.2 |
| 20260904063028 | 49 | 302 | 0.0 | 0.0 | 0.00 | 0.01 | 0.01 | 83 | 1012.1 |
| 20260904061528 | 50 | 24 | 0.0 | 2.0 | 0.00 | 0.01 | 0.01 | 81 | 1012.1 |
| 20260904060022 | 51 | 44 | 0.0 | 0.0 | 0.00 | 0.01 | 0.01 | 79 | 1012.0 |
| 20260904054523 | 52 | 36 | 0.0 | 2.0 | 0.00 | 0.02 | 0.01 | 77 | 1012.1 |
| 20260904053040 | 54 | 312 | 1.0 | 4.0 | 0.00 | 0.02 | 0.01 | 73 | 1012.2 |
| 20260904051620 | 55 | 277 | 0.0 | 2.0 | 0.00 | 0.02 | 0.01 | 69 | 1012.2 |
| 20260904050021 | 55 | 263 | 1.0 | 3.0 | 0.00 | 0.02 | 0.01 | 69 | 1012.3 |
| 20260904044522 | 55 | 225 | 2.0 | 5.0 | 0.00 | 0.04 | 0.01 | 69 | 1012.3 |
| 20260904043029 | 56 | 245 | 2.0 | 5.0 | 0.00 | 0.04 | 0.01 | 69 | 1012.3 |
| 20260904041517 | 56 | 244 | 0.0 | 2.0 | 0.00 | 0.04 | 0.01 | 72 | 1012.2 |
| 20260904040017 | 56 | 144 | 0.0 | 2.0 | 0.00 | 0.04 | 0.01 | 73 | 1012.1 |
| 20260904034517 | 56 | 247 | 0.0 | 3.0 | 0.00 | 0.05 | 0.01 | 70 | 1012.0 |
| 20260904033016 | 56 | 282 | 2.0 | 5.0 | 0.00 | 0.05 | 0.01 | 70 | 1011.5 |
| 20260904031524 | 57 | 270 | 5.0 | 9.0 | 0.00 | 0.05 | 0.01 | 70 | 1011.4 |
| 20260904030015 | 57 | 257 | 3.0 | 11.0 | 0.00 | 0.05 | 0.01 | 68 | 1011.5 |
| 20260904024514 | 59 | 257 | 6.0 | 11.0 | 0.00 | 0.11 | 0.01 | 63 | 1011.4 |
| 20260904023013 | 60 | 283 | 5.0 | 10.0 | 0.00 | 0.11 | 0.01 | 58 | 1011.4 |
| 20260904021521 | 60 | 268 | 5.0 | 12.0 | 0.00 | 0.11 | 0.01 | 58 | 1011.2 |
| 20260904020012 | 61 | 265 | 5.0 | 9.0 | 0.00 | 0.11 | 0.01 | 57 | 1011.2 |
| 20260904014512 | 62 | 290 | 7.0 | 11.0 | 0.00 | 0.24 | 0.01 | 56 | 1011.2 |
| 20260904013012 | 62 | 247 | 8.0 | 12.0 | 0.00 | 0.24 | 0.01 | 54 | 1011.4 |
| 20260904011511 | 63 | 275 | 6.0 | 14.0 | 0.00 | 0.24 | 0.01 | 51 | 1011.2 |
| 20260904010010 | 64 | 256 | 9.0 | 16.0 | 0.00 | 0.24 | 0.01 | 50 | 1011.2 |
| 20260904004510 | 65 | 229 | 8.0 | 14.0 | 0.00 | 0.40 | 0.01 | 49 | 1011.2 |
| 20260904003008 | 63 | 234 | 7.0 | 15.0 | 0.00 | 0.40 | 0.01 | 52 | 1011.2 |
| 20260904001506 | 63 | 205 | 7.0 | 12.0 | 0.00 | 0.40 | 0.01 | 55 | 1011.4 |
| 20260904000005 | 62 | 220 | 5.0 | 14.0 | 0.00 | 0.40 | 0.01 | 56 | 1011.5 |
| 20260903234505 | 65 | 207 | 7.0 | 14.0 | 0.00 | 0.51 | 0.01 | 50 | 1011.5 |
| 20260903233004 | 65 | 268 | 6.0 | 15.0 | 0.00 | 0.51 | 0.01 | 55 | 1011.4 |
| 20260903231600 | 65 | 230 | 7.0 | 14.0 | 0.00 | 0.51 | 0.01 | 57 | 1011.7 |
| 20260903230100 | 63 | 244 | 11.0 | 18.0 | 0.00 | 0.51 | 0.01 | 59 | 1011.9 |
| 20260903224558 | 63 | 217 | 3.0 | 9.0 | 0.00 | 0.61 | 0.01 | 62 | 1011.8 |
| 20260903223059 | 64 | 240 | 5.0 | 12.0 | 0.00 | 0.61 | 0.01 | 61 | 1011.8 |
| 20260903221554 | 64 | 194 | 6.0 | 11.0 | 0.00 | 0.61 | 0.01 | 61 | 1012.0 |
| 20260903220052 | 63 | 253 | 3.0 | 9.0 | 0.00 | 0.61 | 0.01 | 63 | 1012.0 |
| 20260903214604 | 61 | 227 | 3.0 | 5.0 | 0.00 | 0.66 | 0.01 | 64 | 1012.3 |
| 20260903213047 | 60 | 74 | 0.0 | 2.0 | 0.00 | 0.66 | 0.01 | 71 | 1012.3 |
| 20260903211541 | 60 | 270 | 3.0 | 4.0 | 0.00 | 0.66 | 0.01 | 74 | 1012.5 |
| 20260903210045 | 60 | 76 | 0.0 | 2.0 | 0.00 | 0.66 | 0.01 | 70 | 1012.5 |
| 20260903204537 | 60 | 155 | 0.0 | 0.0 | 0.00 | 0.71 | 0.01 | 70 | 1012.6 |
| 20260903203035 | 59 | 348 | 0.0 | 0.0 | 0.00 | 0.71 | 0.01 | 70 | 1012.7 |
| 20260903201537 | 59 | 119 | 0.0 | 0.0 | 0.00 | 0.71 | 0.01 | 72 | 1012.7 |
| 20260903200033 | 59 | 337 | 0.0 | 0.0 | 0.00 | 0.71 | 0.01 | 76 | 1012.6 |
| 20260903194530 | 59 | 318 | 0.0 | 2.0 | 0.00 | 0.74 | 0.01 | 78 | 1012.8 |
| 20260903193028 | 58 | 205 | 0.0 | 3.0 | 0.00 | 0.74 | 0.01 | 78 | 1012.9 |
| 20260903191525 | 58 | 286 | 0.0 | 2.0 | 0.00 | 0.74 | 0.01 | 82 | 1012.9 |
| 20260903190024 | 58 | 274 | 0.0 | 2.0 | 0.00 | 0.74 | 0.01 | 83 | 1013.1 |
| 20260903184521 | 57 | 263 | 0.0 | 1.0 | 0.00 | 0.77 | 0.01 | 85 | 1013.1 |
| 20260903183021 | 57 | 289 | 0.0 | 0.0 | 0.00 | 0.77 | 0.01 | 88 | 1013.1 |
| 20260903181519 | 57 | 182 | 0.0 | 2.0 | 0.00 | 0.77 | 0.01 | 89 | 1013.1 |
| 20260903180020 | 56 | 297 | 0.0 | 1.0 | 0.00 | 0.77 | 0.01 | 88 | 1013.1 |
| 20260903174516 | 56 | 240 | 1.0 | 2.0 | 0.00 | 0.80 | 0.01 | 90 | 1013.1 |
| 20260903173015 | 56 | 146 | 0.0 | 2.0 | 0.00 | 0.80 | 0.01 | 90 | 1013.1 |
| 20260903171514 | 56 | 115 | 1.0 | 4.0 | 0.00 | 0.80 | 0.01 | 88 | 1013.0 |
| 20260903170013 | 56 | 107 | 1.0 | 4.0 | 0.00 | 0.80 | 0.01 | 89 | 1013.1 |
| 20260903164511 | 55 | 71 | 1.0 | 4.0 | 0.00 | 0.85 | 0.01 | 91 | 1013.2 |
| 20260903163008 | 55 | 134 | 0.0 | 2.0 | 0.00 | 0.85 | 0.01 | 92 | 1013.5 |
| 20260903161506 | 54 | 180 | 0.0 | 2.0 | 0.00 | 0.85 | 0.01 | 96 | 1013.7 |
| 20260903160006 | 53 | 22 | 0.0 | 2.0 | 0.00 | 0.85 | 0.01 | 96 | 1013.8 |
| 20260903154503 | 52 | 292 | 0.0 | 2.0 | 0.00 | 0.85 | 0.01 | 96 | 1014.0 |
| 20260903153125 | 50 | 286 | 0.0 | 0.0 | 0.00 | 0.85 | 0.01 | 95 | 1014.0 |
| 20260903151610 | 50 | 286 | 0.0 | 0.0 | 0.00 | 0.85 | 0.01 | 95 | 1013.8 |
| 20260903150107 | 49 | 219 | 0.0 | 0.0 | 0.01 | 0.85 | 0.01 | 95 | 1013.7 |
| 20260903144555 | 48 | 84 | 0.0 | 0.0 | 0.01 | 0.85 | 0.01 | 95 | 1013.7 |
| 20260903143104 | 48 | 84 | 0.0 | 0.0 | 0.01 | 0.85 | 0.01 | 95 | 1013.7 |
| 20260903141551 | 47 | 85 | 0.0 | 0.0 | 0.01 | 0.85 | 0.01 | 95 | 1013.6 |
| 20260903140050 | 47 | 85 | 0.0 | 0.0 | 0.00 | 0.84 | 0.00 | 95 | 1013.4 |
| 20260903134549 | 47 | 5 | 0.0 | 0.0 | 0.00 | 0.84 | 0.00 | 94 | 1013.3 |
| 20260903133046 | 47 | 310 | 0.0 | 0.0 | 0.00 | 0.84 | 0.00 | 94 | 1013.2 |
| 20260903131545 | 47 | 257 | 0.0 | 0.0 | 0.00 | 0.84 | 0.00 | 94 | 1013.2 |
| 20260903130043 | 47 | 189 | 0.0 | 2.0 | 0.00 | 0.84 | 0.00 | 94 | 1013.1 |
| 20260903124542 | 48 | 355 | 0.0 | 0.0 | 0.00 | 0.84 | 0.00 | 94 | 1013.2 |
| 20260903123042 | 48 | 287 | 0.0 | 0.0 | 0.00 | 0.84 | 0.00 | 94 | 1013.4 |
| 20260903121541 | 47 | 287 | 0.0 | 2.0 | 0.00 | 0.84 | 0.00 | 94 | 1013.4 |
| 20260903120047 | 47 | 355 | 0.0 | 0.0 | 0.00 | 0.84 | 0.00 | 93 | 1013.4 |
| 20260903114538 | 48 | 173 | 0.0 | 0.0 | 0.00 | 0.84 | 0.00 | 93 | 1013.5 |
| 20260903113036 | 48 | 55 | 0.0 | 0.0 | 0.00 | 0.84 | 0.00 | 93 | 1013.5 |